Theta_e
292 292 292 292 293 293 293 294 294 294 294 294 295 295 296 297 297 297 299 300 300 301 304 305 305 305 305 304 303 304 305 306 308 308 308 307 308 309 308 309 311 312 311 310 310 308 307 304 304 302 300 300 299 299 297 295 294 294 292 292 291 289 288 289 291 291 290 287 287 286 287 287 289 289 289 289 289 289 289 289 289 290 288 288 288
291 291 291 291 292 292 292 293 293 292 293 293 293 294 295 296 296 297 298 299 299 299 300 304 303 302 302 301 302 303 304 304 304 304 304 305 305 306 306 306 308 308 308 308 307 306 305 303 302 302 300 300 299 298 296 295 293 292 291 289 290 291 289 290 291 291 287 287 286 285 284 285 286 288 288 288 289 289 289 289 289 289 289 288 287
290 290 290 290 290 291 291 292 292 292 292 292 293 293 294 294 295 296 297 297 298 298 299 300 302 302 302 300 301 300 301 301 301 301 302 302 302 302 302 302 302 302 303 303 305 305 304 302 300 300 300 300 299 297 295 294 293 293 291 292 289 288 289 291 291 292 287 285 284 284 281 283 285 285 285 288 289 288 288 288 288 288 289 288 289
288 288 289 289 289 290 290 290 291 291 292 292 292 292 293 293 293 294 295 296 297 298 298 299 299 300 300 300 300 301 300 299 300 300 300 300 301 300 300 299 299 299 299 299 300 302 303 302 301 299 299 298 299 298 296 295 293 292 292 292 291 289 288 289 291 290 287 288 283 284 281 281 280 283 284 285 287 288 287 287 288 288 288 287 288
288 288 288 288 288 288 289 290 290 290 291 291 292 292 293 292 292 293 294 295 295 296 297 298 298 298 298 299 298 298 299 298 297 297 297 296 297 298 299 298 298 298 297 297 298 299 299 300 300 298 298 297 298 297 296 296 295 294 293 292 290 291 289 288 290 289 288 292 288 282 280 281 282 281 283 282 284 286 286 287 288 288 287 287 287
288 288 288 288 288 288 288 289 289 289 289 290 291 292 292 292 292 292 293 294 294 295 296 297 296 296 296 295 294 294 294 294 294 294 296 295 297 296 297 297 297 296 296 297 296 296 297 297 298 297 297 298 297 297 297 295 295 294 293 293 291 291 290 288 288 291 289 289 287 287 286 284 281 281 282 280 284 284 285 286 287 287 287 287 287
288 288 288 288 287 288 288 288 288 288 289 289 290 291 291 292 292 292 292 292 293 293 294 295 294 294 294 294 293 293 292 293 294 295 294 294 294 296 296 296 296 296 296 294 295 295 295 295 295 296 295 295 296 296 295 295 295 294 294 293 292 292 288 288 288 290 289 288 289 288 288 285 285 284 282 279 279 282 283 285 285 286 286 287 287
287 287 287 288 288 287 287 288 288 288 288 288 289 290 290 290 291 291 292 292 292 292 292 293 293 293 292 292 292 292 292 292 293 294 295 294 294 294 295 294 294 295 295 294 293 294 294 295 294 294 294 293 293 294 295 295 295 295 294 294 293 292 290 289 289 288 289 289 289 288 287 286 284 286 283 286 282 280 281 283 283 285 285 286 287
287 287 287 287 287 287 287 287 288 288 288 288 288 288 289 289 290 290 290 290 291 291 291 291 292 291 291 291 290 291 292 292 292 293 293 293 293 293 293 294 293 293 293 294 292 293 293 293 292 292 293 293 291 293 292 292 292 292 293 293 293 292 291 289 288 288 288 289 287 287 286 288 287 285 285 284 282 282 280 281 282 283 284 285 286
287 287 287 287 287 287 287 287 288 288 288 288 288 288 288 288 289 289 289 289 290 289 290 290 290 290 290 289 289 289 290 290 290 290 290 291 291 291 292 292 292 293 293 292 292 292 292 292 292 292 292 293 292 291 290 290 290 289 290 291 292 292 292 290 289 287 289 289 288 288 287 285 287 287 285 284 284 283 283 280 282 282 282 284 286
286 286 286 286 287 287 287 287 287 287 287 287 287 287 287 287 287 287 288 289 289 289 288 288 289 289 288 288 288 288 289 289 288 288 289 289 289 290 290 291 291 291 292 292 292 292 292 291 291 291 291 291 292 292 292 291 290 290 290 289 289 290 291 291 290 289 287 287 287 286 287 288 289 288 287 286 286 284 283 281 280 283 284 282 284
285 285 285 286 286 286 286 286 286 286 287 286 286 286 286 286 286 286 286 287 288 289 288 288 287 287 287 287 287 288 288 288 287 287 287 287 288 288 289 289 289 290 290 290 291 291 292 292 291 290 291 291 292 292 292 292 291 290 289 288 288 288 289 289 289 289 287 286 286 287 287 288 289 289 289 289 288 287 286 283 281 281 282 282 281
285 284 284 284 284 285 285 285 286 285 286 285 286 285 285 285 285 285 285 286 287 287 287 287 286 286 286 286 286 287 287 287 287 286 287 287 287 287 287 287 288 288 288 288 289 290 290 291 292 291 291 291 291 290 291 291 290 289 289 287 287 287 287 287 287 287 287 287 286 286 287 287 288 289 289 288 289 288 286 283 281 281 281 281 281
284 284 283 283 284 285 285 284 285 284 285 285 285 284 284 284 284 284 284 285 285 286 286 286 286 286 286 285 285 285 285 285 285 285 285 286 286 286 286 286 286 286 287 287 288 289 289 290 290 290 289 288 288 289 289 289 289 289 289 287 286 287 285 285 286 286 286 286 285 285 284 285 287 288 288 287 288 288 285 285 282 282 280 281 280
284 285 285 284 286 285 285 285 285 284 284 284 283 283 282 282 283 283 283 283 284 284 285 285 285 285 285 285 285 285 284 284 284 285 285 285 285 285 285 285 285 286 286 287 287 287 287 287 288 288 288 289 289 289 290 288 288 288 288 287 287 286 285 285 285 284 286 285 284 285 285 284 285 286 287 288 288 288 288 285 284 283 281 280 280
283 284 284 285 286 285 285 286 285 283 283 283 283 283 282 282 282 282 282 282 283 283 283 284 284 284 284 283 284 284 284 283 283 284 284 284 284 284 284 284 285 285 285 286 286 286 285 286 286 286 287 288 288 287 287 287 287 287 287 287 287 288 286 285 285 284 284 284 285 285 284 285 285 284 286 287 287 288 288 287 286 286 285 282 279
284 284 284 284 284 285 284 284 284 284 283 283 283 282 281 281 281 281 282 282 282 282 282 282 283 283 283 283 282 282 282 281 282 282 282 283 283 283 283 283 284 284 284 285 285 284 284 284 284 285 285 285 286 286 286 286 285 286 286 286 286 287 286 285 285 285 284 284 284 284 285 286 285 285 285 285 286 286 287 287 288 288 287 286 281
283 283 283 283 284 285 284 283 284 284 283 282 283 283 282 281 280 280 280 281 281 281 281 281 280 281 280 280 281 280 280 280 281 281 281 281 281 282 282 282 282 282 283 284 283 283 283 284 284 284 284 284 284 285 285 286 285 286 286 286 286 285 285 286 285 285 284 284 284 284 284 284 284 284 285 285 285 286 285 286 287 287 288 288 285
283 283 283 283 282 282 282 283 283 283 283 282 282 283 282 281 280 280 280 280 280 281 280 280 279 281 282 280 281 280 279 279 279 279 279 280 280 281 280 281 282 282 282 282 283 283 282 283 283 283 283 284 284 284 284 285 284 285 285 286 286 285 285 285 286 285 286 285 284 284 284 284 284 284 284 284 284 284 285 285 285 287 286 288 288
283 282 282 282 282 282 282 283 283 283 283 282 282 281 281 281 281 280 279 279 279 280 279 280 280 279 280 279 279 280 280 280 279 279 278 278 279 279 279 280 281 281 281 281 282 283 284 284 284 283 283 284 284 284 284 284 284 284 284 285 285 284 284 285 285 285 285 285 284 284 284 284 284 283 284 284 284 284 285 284 285 285 286 287 287
281 281 281 281 281 281 282 282 282 282 282 282 281 282 282 281 280 280 280 280 279 280 279 279 280 281 280 280 279 279 279 279 278 279 278 278 278 279 279 279 279 280 280 281 281 282 283 283 284 284 284 284 284 284 285 285 284 284 284 284 284 284 284 284 284 284 285 284 284 284 284 284 284 284 284 284 284 284 284 284 284 284 285 285 285
281 281 281 281 281 282 281 282 281 282 283 283 283 282 281 281 281 281 280 280 280 280 280 279 279 279 278 277 277 278 278 279 278 278 277 278 278 278 278 278 278 279 279 280 280 281 281 282 282 283 283 284 284 284 284 284 284 284 284 285 285 284 284 284 284 284 285 285 284 284 284 285 285 284 284 284 284 284 283 283 284 283 284 284 284
281 281 281 281 280 281 281 281 281 281 281 281 282 282 281 281 281 280 280 279 280 281 280 280 279 279 278 278 277 277 277 277 278 279 278 278 277 278 278 278 278 279 279 279 280 280 280 280 280 281 282 282 283 283 284 284 284 284 284 284 285 284 284 284 284 284 285 285 284 284 284 285 285 284 284 284 284 283 284 283 284 284 283 284 283
280 280 279 279 279 279 279 279 280 280 280 281 280 280 281 281 281 279 279 279 279 279 278 278 278 277 277 277 276 277 277 277 277 278 278 278 278 278 278 278 278 278 278 279 279 279 280 279 280 280 280 280 281 282 282 283 283 283 284 284 284 284 284 284 284 284 284 284 285 284 285 285 284 284 284 284 283 283 283 284 283 284 284 284 283
279 279 280 279 279 279 279 279 279 279 280 280 280 280 280 280 279 280 280 278 278 278 278 277 277 276 276 276 276 276 276 276 276 277 277 278 278 278 278 277 277 277 278 278 278 278 279 279 279 279 280 280 280 281 281 281 282 283 283 283 283 284 284 284 284 284 285 284 284 284 285 285 284 284 284 284 284 283 284 283 283 284 284 284 284
278 278 278 279 279 278 278 278 278 278 279 279 279 279 279 279 279 279 279 279 279 278 277 277 276 277 277 276 276 277 277 277 277 277 277 277 278 277 277 277 277 277 277 277 277 278 278 278 279 279 280 280 280 280 280 280 281 282 282 283 283 283 283 284 284 284 284 284 284 284 285 285 284 284 284 284 284 284 284 284 283 284 284 284 283
278 278 278 278 278 278 278 277 278 278 277 278 278 278 278 278 278 278 277 278 278 278 278 277 276 276 277 277 277 277 277 277 277 277 277 278 277 277 277 277 277 276 276 276 276 277 277 278 278 279 279 280 280 280 280 280 280 281 281 282 282 283 283 283 283 283 284 284 284 284 284 284 284 284 284 284 285 284 284 284 284 284 284 283 283
277 277 278 278 278 277 277 278 278 278 278 278 278 279 280 280 280 279 278 278 279 278 278 278 277 277 276 277 276 276 277 277 277 277 277 277 277 277 277 277 276 276 276 276 276 276 276 277 277 278 278 279 279 279 279 279 280 280 280 281 281 282 282 283 283 283 283 283 284 284 284 284 284 284 284 285 285 285 285 284 285 284 284 284 283
278 278 278 278 278 278 278 278 278 278 278 279 279 278 278 278 278 277 278 279 278 278 277 277 277 276 276 276 276 276 276 276 276 276 277 277 277 277 277 277 277 276 277 276 276 276 276 276 276 276 277 277 278 278 279 280 280 280 280 280 280 281 281 282 282 282 283 283 283 284 284 284 285 285 286 286 286 286 285 285 285 284 284 284 284
278 278 278 278 278 278 278 278 278 278 278 278 278 278 278 279 279 278 278 278 278 277 277 276 276 276 277 277 277 277 277 276 277 277 277 277 277 277 277 276 276 276 276 276 276 276 275 275 275 275 275 276 276 277 280 282 283 282 281 281 281 281 281 282 282 282 282 283 283 283 284 285 285 285 286 286 287 288 288 287 286 285 285 284 284
279 278 278 278 278 278 278 278 278 279 279 279 279 279 279 278 278 277 278 277 278 277 276 275 276 276 276 277 277 277 277 277 277 277 277 276 277 277 276 276 276 276 276 275 275 275 275 275 274 274 274 275 275 276 280 282 283 284 282 281 281 281 281 281 281 281 281 281 282 283 283 283 284 285 285 286 287 288 288 288 288 288 287 285 283
279 278 278 278 278 278 278 278 279 279 279 279 279 279 278 279 277 277 277 277 276 275 276 276 275 276 276 276 277 276 276 277 276 276 276 275 275 275 275 275 275 275 275 275 275 275 275 274 274 274 274 274 274 278 280 281 281 282 282 281 281 281 281 281 281 280 281 281 281 282 282 283 283 283 283 283 285 287 288 288 288 288 288 289 288
279 279 278 278 278 278 279 279 278 279 279 279 280 278 278 277 277 277 276 275 275 275 275 275 275 275 275 276 275 275 275 275 275 275 274 274 274 274 274 274 273 273 274 273 274 274 274 274 274 273 273 273 273 277 279 280 280 281 282 281 279 280 280 280 280 280 280 280 280 280 281 282 283 284 284 284 283 283 285 287 288 288 288 289 289
278 278 278 278 278 278 279 279 279 279 279 279 277 277 277 276 277 275 274 275 274 274 274 274 274 274 274 274 274 273 273 273 273 273 273 273 272 272 272 272 272 273 272 272 272 272 272 272 273 272 272 273 273 276 278 279 280 281 281 281 278 278 279 279 280 280 280 280 280 279 279 280 281 282 283 283 283 283 283 283 283 284 285 286 288
276 276 276 277 277 277 277 276 277 277 278 278 278 278 277 276 274 274 274 274 274 273 273 274 274 274 273 272 273 272 271 271 271 271 271 270 270 271 271 271 271 271 271 270 270 270 271 271 271 272 271 271 272 276 278 278 279 280 281 280 277 277 277 278 278 279 279 279 280 280 280 280 280 281 281 282 282 282 282 282 282 282 283 283 284
277 277 278 277 277 277 277 277 278 278 277 277 276 276 275 274 274 273 273 272 272 272 272 272 271 272 271 272 270 270 269 269 269 269 269 269 269 269 268 269 269 269 269 269 269 270 269 269 270 270 270 269 270 275 276 277 278 279 279 276 275 275 275 275 276 277 278 278 279 280 279 280 280 281 283 285 285 283 281 281 281 282 282 283 283
278 278 278 278 278 277 277 278 277 276 276 275 274 274 274 272 272 272 270 270 270 269 270 270 270 270 269 269 269 268 268 267 267 267 267 266 267 267 267 267 266 266 266 266 267 267 268 268 267 268 267 268 268 272 275 276 276 277 276 273 273 273 273 273 274 275 276 277 278 278 279 279 280 280 283 285 286 286 282 281 281 280 281 282 282
279 278 278 278 277 277 277 277 275 274 274 273 273 273 271 271 270 270 268 269 267 268 269 268 268 267 267 267 267 266 266 266 265 264 264 265 265 265 264 265 264 264 264 265 265 265 266 266 266 266 266 266 266 270 273 273 274 275 274 271 271 271 271 272 272 274 274 275 276 278 279 278 278 279 283 284 285 284 282 282 281 280 280 280 281
279 279 278 277 278 277 276 275 274 273 272 272 271 270 270 269 269 269 268 267 267 268 267 266 267 267 266 265 265 264 264 264 263 263 263 263 263 263 263 264 263 263 263 264 264 263 263 264 264 264 267 266 264 266 270 271 272 273 271 270 270 270 270 270 271 272 273 273 274 276 277 278 278 279 283 284 285 283 282 281 281 280 280 280 281
277 276 276 277 277 276 274 273 272 272 271 270 269 269 267 268 268 268 266 265 267 266 266 266 265 265 264 263 263 263 262 262 262 262 262 262 262 262 262 262 262 262 262 262 262 262 262 262 263 263 263 263 263 264 266 270 271 272 273 270 269 269 268 269 270 270 270 272 273 273 274 277 279 280 281 282 283 285 282 281 281 280 280 279 282
276 277 279 276 275 275 273 272 271 271 270 269 268 267 266 266 267 266 264 266 266 265 265 264 264 263 262 262 261 261 261 261 261 261 261 261 261 261 261 261 261 261 261 261 260 261 261 261 262 262 262 263 263 263 264 270 271 271 272 271 268 269 269 269 269 270 270 270 270 271 272 275 277 278 278 279 281 282 283 282 281 281 281 282 284
276 277 276 275 273 272 271 270 269 269 268 267 265 265 265 265 264 263 264 265 264 264 263 261 261 261 260 260 259 260 260 260 260 260 260 260 260 261 260 260 260 260 259 259 260 260 260 260 261 261 261 262 264 266 264 267 270 271 271 272 268 268 269 269 268 269 269 269 270 271 272 275 277 278 279 279 280 281 282 281 282 285 286 286 284
275 273 274 273 271 270 269 268 268 267 267 266 263 263 262 263 262 263 264 263 263 262 261 261 260 259 259 259 259 259 259 259 259 259 259 259 259 259 259 260 259 259 259 258 259 259 259 259 260 260 261 261 262 263 267 265 269 270 271 272 272 271 272 270 268 267 267 267 268 269 271 274 276 277 278 279 280 281 281 280 284 285 286 287 286
272 272 271 270 269 268 267 267 267 266 264 264 262 261 261 261 262 263 263 261 260 260 260 259 258 258 258 258 258 258 258 258 258 259 258 258 258 259 259 259 259 259 258 258 258 259 258 258 258 259 260 261 261 262 265 268 267 270 271 272 272 273 273 269 268 267 267 268 268 269 270 275 276 278 279 280 281 281 279 281 283 284 286 286 285
271 269 268 267 267 266 265 265 265 263 264 262 261 260 260 260 262 261 260 260 259 258 258 257 257 257 257 258 258 258 258 258 258 258 258 258 258 258 258 258 258 258 258 257 257 258 257 257 258 258 259 260 260 261 261 264 268 269 271 272 272 272 272 272 268 267 268 268 270 273 274 275 276 277 278 278 280 280 281 282 282 283 284 284 284
268 266 266 264 264 262 262 263 263 262 262 262 260 260 258 260 261 260 259 259 258 257 257 257 257 257 257 257 257 258 258 258 258 258 258 258 258 258 258 258 258 257 257 257 257 257 257 257 257 258 258 259 260 261 261 262 264 266 267 269 271 272 271 272 271 269 272 274 274 274 275 275 275 275 273 274 275 277 281 282 282 282 282 282 283
265 266 264 263 261 261 261 261 261 261 260 260 259 259 260 260 258 260 259 257 256 256 257 257 256 257 257 257 257 257 258 258 258 258 258 258 258 258 257 257 257 257 256 257 257 257 257 257 258 258 259 260 261 262 262 263 263 263 263 264 265 265 269 270 267 266 268 267 268 270 270 273 274 276 276 277 277 277 278 280 280 280 281 281 282
265 265 262 261 260 261 260 260 260 261 260 259 258 257 258 257 257 258 256 255 256 256 256 256 256 256 257 257 257 258 258 257 257 257 257 257 257 257 257 257 256 257 256 257 257 258 258 259 260 260 261 262 262 263 263 264 264 264 264 265 265 265 265 265 265 266 266 267 267 271 272 271 272 272 273 274 274 276 278 280 280 280 280 281 282
264 262 261 262 261 260 259 259 259 260 258 257 257 258 257 258 258 257 256 255 256 256 256 255 256 256 256 257 257 257 257 257 257 257 257 257 257 257 257 258 259 260 260 260 260 262 263 263 263 263 263 263 263 264 265 269 268 271 269 269 268 268 268 267 269 271 269 269 270 270 270 271 271 271 271 272 273 274 276 278 280 280 280 281 281
262 261 260 260 260 259 258 258 258 259 257 256 256 258 258 258 257 256 255 255 256 256 255 255 256 256 256 257 257 257 256 256 256 256 256 257 260 265 263 261 261 265 268 269 269 265 265 265 265 266 266 264 264 265 271 273 273 273 273 273 273 274 275 272 273 275 273 270 269 269 269 269 270 270 270 271 272 273 274 276 277 279 279 280 280
261 260 259 259 259 259 258 256 257 257 256 255 256 257 256 257 257 257 256 255 255 255 256 256 256 256 257 257 257 256 256 256 256 257 256 256 256 258 264 266 267 267 268 269 270 271 271 271 267 265 267 271 272 272 273 273 273 273 273 273 274 275 275 275 276 272 270 269 268 268 269 269 270 270 270 270 272 273 274 275 276 277 278 279 280
Wind_Speed
5 7 10 10 10 10 9 9 9 11 12 13 14 14 13 11 11 12 9 10 9 8 7 8 7 7 7 7 4 5 5 5 6 6 7 6 5 4 4 2 0 0 1 3 4 5 5 5 5 5 5 6 7 9 8 8 7 8 8 6 8 5 4 4 6 8 9 3 3 2 2 2 1 1 3 4 4 5 5 7 5 4 4 4 4
6 10 11 10 10 10 9 9 11 14 13 13 13 12 11 12 12 10 10 9 9 6 5 6 5 3 5 4 6 6 7 7 6 6 6 6 6 6 5 5 4 3 2 1 1 2 3 4 5 6 6 7 7 5 5 6 6 5 5 5 5 9 7 8 8 9 3 8 7 3 0 2 2 2 2 4 5 5 6 6 5 6 6 5 4
9 10 9 10 10 10 9 10 11 11 11 13 11 12 13 12 11 9 9 9 9 9 9 6 5 6 6 4 4 3 3 4 5 4 5 6 6 5 5 4 3 3 4 3 1 0 1 2 3 3 5 5 5 5 5 6 7 8 8 8 6 3 3 6 10 11 7 4 3 5 3 4 3 3 5 5 6 6 5 6 6 6 7 6 5
11 9 9 9 9 9 10 10 10 9 10 11 12 12 10 11 10 10 9 9 9 9 8 7 8 7 7 7 7 7 4 4 6 7 7 7 7 5 5 4 4 3 3 3 2 1 1 1 1 1 3 3 5 6 6 7 6 6 7 8 7 6 4 8 9 10 6 11 4 6 4 4 2 10 9 4 6 7 6 7 6 7 7 6 5
9 8 8 8 9 9 9 9 8 10 10 11 11 10 8 10 10 10 9 9 9 10 9 8 10 10 9 10 9 9 9 9 7 7 5 4 3 5 5 4 4 4 4 4 3 3 3 1 0 1 2 3 3 4 5 7 8 8 9 8 8 9 8 5 8 7 8 12 8 6 2 1 7 2 5 4 3 5 6 6 6 7 7 7 7
8 8 7 6 6 8 10 10 11 11 11 10 9 10 10 10 11 11 10 9 10 9 9 9 9 10 10 10 9 8 8 8 8 6 5 3 1 2 3 4 4 4 4 4 4 4 4 4 1 0 2 3 3 5 5 4 5 6 7 8 9 8 8 6 6 9 8 9 5 4 6 8 6 4 5 5 1 3 4 5 6 6 6 7 7
7 7 7 9 9 10 11 12 11 12 10 7 8 9 10 9 9 10 9 8 9 9 10 8 10 9 10 8 7 7 7 6 5 6 7 6 2 3 1 2 2 3 4 4 4 4 4 4 4 2 2 3 4 4 5 5 6 7 6 6 8 8 4 7 9 9 7 8 8 8 1 0 6 8 6 4 1 4 4 6 6 6 7 7 8
7 8 8 8 10 10 11 9 9 9 7 7 8 8 10 10 10 9 8 9 9 9 10 9 10 10 10 9 8 8 7 6 7 7 7 8 9 9 6 3 2 1 2 4 4 4 4 5 4 4 3 3 3 4 6 6 5 4 5 6 6 6 7 8 8 7 10 9 8 10 6 1 3 0 5 10 6 6 7 4 4 7 6 8 8
5 7 9 9 9 9 7 8 7 7 8 8 8 8 8 9 9 9 11 11 10 10 10 11 11 10 10 8 9 7 7 7 6 8 8 8 9 9 9 9 8 5 2 2 3 4 4 4 4 4 4 4 2 4 4 4 5 6 6 6 7 7 7 6 5 7 8 9 5 9 6 6 3 3 1 2 6 6 4 8 8 1 3 7 9
6 7 7 8 7 6 5 5 7 7 7 7 7 8 8 8 11 12 12 10 9 10 11 13 13 11 12 11 11 9 9 8 8 9 8 8 9 9 8 8 8 10 9 6 5 4 4 4 4 4 4 5 4 4 4 4 5 5 5 6 6 8 6 7 9 7 8 7 7 6 8 5 4 4 3 4 3 3 7 8 9 11 10 11 9
5 5 6 7 6 7 6 7 6 7 6 7 8 8 8 9 9 12 10 9 9 9 11 12 12 12 11 11 11 10 9 9 10 10 9 9 9 9 8 7 8 7 8 9 9 9 8 5 4 4 4 4 5 5 5 5 5 5 6 5 5 7 7 8 8 7 7 7 8 7 8 9 11 10 9 6 7 5 1 4 4 9 13 7 8
4 5 6 6 6 7 6 7 7 7 7 8 8 8 8 8 8 10 10 9 8 8 11 12 11 12 11 11 11 9 9 8 10 9 9 9 9 9 8 8 9 8 8 8 8 9 9 8 5 4 4 4 5 5 5 5 5 5 5 5 5 6 6 7 7 8 7 7 8 8 8 7 8 7 5 7 9 8 8 7 7 4 5 6 2
5 5 5 4 4 5 6 6 7 7 6 7 8 7 7 7 8 10 10 8 8 8 11 11 12 12 11 11 9 8 9 9 8 9 7 8 8 8 9 9 8 9 8 8 8 9 7 9 9 7 5 5 4 5 6 6 5 5 5 5 6 6 7 7 7 8 9 9 9 8 8 8 9 7 6 6 6 5 4 6 4 2 5 3 3
4 4 4 3 3 4 5 4 3 3 4 6 6 6 6 6 6 8 7 7 7 9 9 11 11 11 10 9 9 8 9 8 8 8 8 7 7 7 7 7 7 8 8 8 8 7 7 7 7 6 5 5 5 5 5 5 5 6 5 6 6 7 5 6 7 7 8 8 6 7 7 8 9 7 8 6 7 6 6 7 4 3 0 3 0
4 4 3 4 4 4 3 1 1 1 3 4 4 4 4 5 6 7 8 8 8 8 9 11 10 10 9 8 8 7 7 7 7 6 7 8 7 8 7 7 7 7 7 7 8 8 8 8 7 7 7 7 6 6 6 5 5 5 5 6 6 6 6 6 6 6 8 8 8 8 8 7 7 7 7 8 7 8 8 7 8 5 3 1 4
4 4 4 4 3 3 2 1 1 1 3 4 4 3 4 4 5 6 6 6 7 8 9 9 9 8 9 10 9 8 7 6 7 7 7 6 7 7 7 7 7 7 7 8 9 7 8 8 8 8 7 7 7 7 6 5 5 5 6 6 7 6 6 6 7 6 8 8 9 8 7 9 6 7 8 8 7 8 8 6 7 9 10 9 3
4 4 3 4 3 2 2 2 1 3 4 4 3 3 4 4 5 7 7 7 8 8 8 8 7 8 8 7 6 7 7 7 7 7 7 7 6 6 7 7 6 6 7 6 8 8 8 8 7 7 7 6 7 7 6 6 5 4 5 6 7 7 6 7 7 7 7 7 7 8 8 8 7 6 7 7 7 7 7 7 8 11 9 11 8
4 4 3 3 3 3 3 2 2 3 4 3 4 3 4 4 5 6 6 8 6 6 6 5 5 5 5 5 5 4 4 5 5 5 5 6 7 6 6 8 7 7 6 7 7 8 8 9 8 9 8 7 6 6 6 6 6 6 5 5 6 6 6 7 6 7 7 7 7 7 7 8 7 7 8 7 7 8 8 7 8 8 8 13 11
3 3 3 3 4 3 3 2 2 3 4 4 4 5 5 4 4 4 5 5 4 4 4 4 2 2 1 2 2 3 3 4 3 4 4 5 6 6 6 5 6 7 7 8 8 8 8 9 7 8 8 9 8 8 6 6 5 6 6 6 6 6 6 7 7 7 7 6 7 9 8 8 7 8 9 7 7 7 7 7 7 7 9 12 13
4 4 4 4 4 4 4 3 3 4 4 4 4 4 4 4 4 4 3 4 4 4 4 4 2 1 3 2 3 2 3 2 2 2 4 3 4 4 5 5 6 6 6 6 7 7 8 9 9 9 9 8 8 8 7 7 7 6 6 6 7 5 6 7 8 7 6 6 7 8 9 8 8 7 9 7 8 8 7 7 8 8 9 10 10
5 5 4 4 4 3 3 3 4 3 3 3 4 3 1 2 3 2 3 3 4 4 4 4 3 3 3 3 3 4 4 3 4 2 3 3 3 3 4 3 4 6 5 6 5 6 7 7 8 8 8 9 9 9 8 7 7 7 7 6 6 6 6 7 7 8 7 6 8 9 9 9 7 9 9 7 8 8 7 8 8 7 9 8 9
5 4 4 3 3 2 3 3 3 4 2 2 1 2 1 1 0 1 1 1 1 1 3 4 4 4 5 4 4 4 4 5 5 4 4 4 3 4 4 4 4 4 4 6 6 5 5 7 6 7 8 8 9 9 9 8 8 8 7 6 6 7 7 8 6 8 8 7 7 9 10 9 8 9 9 9 8 8 8 9 9 8 9 9 8
6 5 4 4 4 4 4 4 3 2 2 2 1 1 0 0 1 1 1 1 0 0 1 2 3 3 4 4 3 3 4 4 5 5 5 5 4 4 4 3 4 5 4 5 6 6 6 6 6 6 6 7 8 8 8 8 9 8 8 8 7 7 7 8 8 9 9 8 8 8 9 8 7 9 10 9 8 9 8 10 12 9 10 10 8
4 4 4 4 4 4 4 4 4 3 2 2 3 3 1 0 0 1 2 1 2 1 1 2 2 3 3 3 3 3 4 4 4 4 5 5 4 4 4 4 4 4 6 6 5 6 6 7 7 7 7 7 8 8 8 8 9 9 9 9 9 8 8 8 8 9 8 8 9 9 9 8 8 10 10 9 8 8 9 10 11 11 10 11 8
5 5 5 4 4 4 5 5 4 3 3 2 4 4 3 1 1 1 0 0 1 0 1 1 1 3 4 4 4 3 4 4 4 4 4 4 4 4 4 4 4 5 5 7 8 6 7 7 7 8 8 8 8 8 8 9 9 9 9 9 9 9 9 9 9 9 8 9 9 10 10 8 8 10 10 9 9 10 10 10 11 11 10 10 7
6 6 5 6 6 5 5 5 4 4 4 3 3 3 3 3 2 2 1 0 0 0 1 2 3 4 5 5 5 6 6 6 6 6 5 5 5 4 5 4 4 5 5 5 6 6 6 8 8 8 8 9 8 8 8 9 9 10 10 9 9 9 10 10 10 9 9 8 9 10 10 9 9 10 10 10 9 11 10 11 12 11 10 9 10
7 6 5 4 4 4 5 5 5 5 4 4 4 4 4 4 3 3 3 1 1 0 0 2 3 4 5 6 6 6 6 6 7 7 7 7 7 6 5 6 5 5 6 7 6 7 7 7 9 9 9 10 10 9 9 10 10 9 9 10 10 10 10 9 9 10 9 9 9 10 10 10 10 11 11 11 10 11 10 12 12 11 10 10 11
5 5 5 7 6 5 5 5 5 5 5 3 3 3 2 2 2 2 2 1 1 1 0 1 1 3 4 5 5 4 5 6 6 6 7 7 8 8 8 7 6 7 7 7 8 8 8 7 9 9 9 9 11 12 11 11 10 10 10 10 10 11 11 11 10 10 10 10 10 10 10 11 11 11 11 11 10 11 10 11 11 9 9 10 12
6 7 7 6 6 6 6 5 5 5 4 4 4 4 3 3 3 3 1 2 1 0 1 1 1 3 4 4 4 4 4 5 5 6 7 7 7 7 8 9 8 8 8 8 8 9 10 11 10 9 11 10 11 11 10 10 11 12 11 12 12 13 13 13 12 12 11 11 11 10 11 11 13 16 18 16 14 13 10 11 10 8 8 10 11
6 7 7 6 7 6 6 5 5 5 6 5 4 4 4 4 4 3 1 3 1 1 2 3 4 4 5 5 5 6 6 6 7 8 8 8 8 9 9 9 10 9 8 9 9 10 10 11 13 13 12 11 11 10 12 21 19 14 13 12 12 13 13 13 14 14 13 12 12 12 12 17 18 20 20 20 21 21 20 16 12 9 10 11 11
7 7 8 7 7 6 6 6 7 7 7 7 6 6 5 4 4 4 3 3 0 1 2 3 4 4 5 7 8 8 8 9 9 9 9 9 10 9 10 11 11 10 10 10 10 11 12 12 13 13 15 13 12 12 23 25 25 26 18 14 14 13 13 14 13 14 15 15 14 13 12 14 16 17 17 21 22 23 22 23 23 21 16 13 11
9 9 8 7 8 8 8 9 9 8 7 6 6 6 5 5 4 3 3 1 1 2 2 2 3 4 5 7 7 8 9 10 9 9 9 8 8 10 11 11 11 11 11 10 12 13 13 13 12 13 14 15 14 18 27 26 27 27 24 17 14 14 14 14 14 15 14 13 14 14 13 11 12 13 13 13 17 21 23 23 24 23 23 24 22
9 9 8 8 9 9 10 10 8 7 6 8 8 5 5 4 3 3 2 2 2 2 2 3 4 4 5 6 7 7 8 9 8 8 7 8 10 11 11 10 10 9 10 12 14 14 14 14 14 15 15 16 15 21 27 28 27 27 28 23 14 15 16 15 16 16 16 16 14 13 13 12 12 18 16 14 14 14 18 23 24 24 25 25 25
7 7 7 8 8 7 8 8 8 8 7 4 4 4 3 3 2 2 3 2 2 3 2 4 5 5 5 5 6 6 7 7 6 7 8 9 9 10 9 8 9 11 12 13 14 15 15 15 15 15 15 16 17 21 28 28 27 28 28 25 16 16 17 17 17 17 16 17 17 16 15 14 13 14 13 14 14 14 13 13 14 14 15 19 24
4 4 5 6 6 5 5 4 4 2 3 5 2 1 2 4 3 3 3 3 3 3 5 5 6 5 5 5 6 5 6 6 6 7 8 9 9 10 11 10 10 12 13 13 14 15 15 15 15 14 14 16 16 27 29 30 29 30 30 25 16 15 15 16 17 17 17 17 18 17 17 17 17 15 13 14 14 14 13 12 13 14 15 15 15
5 5 6 4 4 5 5 3 2 4 3 3 3 3 5 3 3 3 3 3 4 4 5 5 5 5 5 5 4 6 7 8 9 9 9 10 10 10 11 10 10 11 11 12 13 13 15 16 15 14 15 17 18 29 29 30 31 30 31 19 13 14 14 15 17 18 18 17 16 17 17 18 19 18 17 21 20 15 13 15 16 15 15 14 15
6 5 6 5 4 3 3 5 4 4 5 4 3 4 4 3 3 3 4 3 3 4 4 4 4 4 4 5 6 7 9 9 9 10 11 11 11 12 11 8 11 12 13 13 13 13 13 15 16 15 15 16 17 23 28 29 29 32 26 16 15 15 14 16 17 16 16 15 16 15 16 16 17 19 19 23 24 23 16 17 17 17 16 14 15
7 5 3 1 3 5 4 7 7 6 4 3 3 4 3 3 4 4 3 3 3 4 4 4 4 4 5 5 6 6 8 9 9 10 12 12 11 10 10 9 11 13 14 13 12 14 14 13 14 15 13 15 17 22 30 30 32 32 27 19 14 14 16 16 17 17 14 13 16 30 28 20 20 21 23 29 28 22 18 18 18 18 18 17 16
6 7 4 6 6 7 7 6 7 6 3 3 4 4 5 3 2 2 2 3 4 4 3 4 4 4 5 5 4 5 7 8 10 11 10 12 12 11 11 10 10 11 13 12 12 13 13 12 10 13 22 23 18 22 29 29 30 30 24 16 15 14 15 16 15 15 15 14 15 20 30 28 25 25 33 32 33 28 19 18 18 18 19 19 17
7 3 4 6 6 7 6 6 6 5 3 4 4 4 3 2 1 1 2 4 4 3 3 4 5 5 4 4 4 6 7 8 10 11 10 10 10 11 11 11 11 10 12 12 12 12 15 14 11 11 12 14 15 16 19 29 28 28 28 18 14 13 15 17 17 17 17 15 14 14 20 31 34 34 35 37 35 35 24 19 18 18 18 21 15
4 3 5 5 3 5 7 6 5 3 3 3 4 4 3 1 1 2 4 3 3 3 4 4 5 5 4 5 5 5 8 9 8 10 11 10 9 10 11 11 12 12 11 12 12 12 13 14 10 10 11 11 11 15 16 25 27 27 28 24 13 14 13 13 13 15 14 15 16 16 17 25 33 35 35 36 36 36 36 24 21 20 19 18 15
2 5 5 6 6 7 7 5 3 4 4 4 4 3 1 2 2 4 4 3 4 4 4 4 5 5 5 5 5 6 6 8 8 8 10 11 9 10 10 11 11 12 14 14 13 12 13 13 11 10 11 11 13 21 17 22 26 28 27 28 18 15 17 15 16 15 17 17 18 17 16 20 29 30 31 32 35 35 37 27 23 26 26 24 21
4 3 2 6 6 5 5 4 3 4 4 3 4 3 2 2 4 5 3 4 4 5 5 5 6 6 6 6 6 6 8 6 8 9 10 12 10 10 11 10 12 13 14 14 13 12 12 13 11 9 9 10 10 12 22 20 25 28 28 27 29 24 28 20 16 18 17 17 18 19 21 31 33 34 34 35 35 38 33 26 36 39 38 32 25
2 4 3 5 6 5 4 3 3 3 3 4 5 3 2 3 6 3 3 4 4 4 5 6 6 6 7 7 6 7 7 7 8 9 9 10 11 10 10 9 10 11 12 13 11 11 12 12 12 10 8 9 10 11 16 24 23 28 28 29 29 30 30 20 18 16 17 18 18 18 21 31 33 33 34 34 35 34 26 35 36 40 35 29 19
6 5 4 4 5 5 4 2 2 3 4 4 4 3 4 5 4 3 4 5 5 5 6 7 7 7 7 7 7 7 8 7 7 7 9 9 10 9 10 9 9 11 11 12 12 11 12 13 13 13 12 10 10 10 11 16 26 28 30 31 31 32 31 32 22 16 17 17 23 33 35 35 34 35 36 36 32 34 38 35 37 40 32 18 17
6 4 4 4 4 3 3 2 1 2 3 3 2 1 4 6 4 3 4 4 5 6 7 7 7 7 8 8 10 9 7 7 7 6 7 8 9 10 10 10 10 11 11 11 13 11 12 11 13 12 12 12 11 10 12 12 14 19 22 28 33 32 32 32 31 26 32 37 36 35 37 35 31 27 21 17 18 20 30 34 36 35 20 17 15
4 3 4 3 2 1 1 0 0 0 1 1 1 2 4 4 4 4 4 5 5 6 8 7 8 8 8 8 9 9 9 7 6 7 6 7 8 8 9 10 11 12 12 11 12 12 12 12 12 12 12 12 12 11 11 11 11 12 12 15 17 18 25 28 22 18 21 21 24 24 21 25 25 32 33 31 29 28 25 22 19 18 16 14 14
4 4 4 3 2 0 0 1 1 1 0 1 2 3 4 4 4 4 4 4 5 5 7 8 8 8 8 7 8 9 10 9 8 7 8 8 7 8 9 11 12 12 12 13 12 13 13 13 13 12 13 12 10 9 9 11 12 12 12 12 12 13 13 12 14 15 16 18 17 20 24 18 16 16 16 13 14 17 18 19 17 15 15 15 17
3 2 2 1 0 0 1 1 1 1 1 2 3 4 4 4 4 4 4 5 6 6 6 7 7 7 8 7 7 8 8 9 10 8 7 7 9 10 11 12 11 10 11 12 13 13 12 13 12 13 13 14 11 11 9 17 20 25 22 17 13 11 10 10 14 21 18 16 13 14 13 14 12 12 11 12 13 15 14 12 12 12 12 12 12
3 3 1 0 1 1 1 1 2 1 1 2 4 5 4 5 4 4 4 5 7 7 6 7 6 7 8 8 8 8 8 9 9 10 10 8 9 19 17 14 13 20 28 29 25 17 16 14 13 11 10 14 14 15 29 35 33 32 32 33 30 30 29 24 26 33 25 16 12 11 10 11 11 11 11 12 13 13 13 12 10 11 12 11 12
2 1 0 0 0 0 1 2 3 1 2 3 4 5 5 5 5 5 4 5 6 7 7 7 7 7 9 10 9 9 8 8 9 9 9 11 11 9 18 27 26 26 26 28 28 31 32 31 22 17 17 30 33 35 34 34 35 34 34 33 31 29 30 30 31 22 15 12 11 12 12 12 12 11 12 11 11 11 12 12 13 10 9 11 14
Wind_Direction
29 38 38 34 26 19 18 22 23 27 25 22 28 27 27 23 25 24 10 16 25 21 29 41 36 25 26 24 22 16 34 39 41 34 46 38 38 43 40 39 54 78 99 136 167 166 175 168 171 177 172 177 180 192 189 191 188 182 180 179 170 173 187 175 167 138 129 73 26 29 12 348 7 100 185 192 179 176 168 166 177 161 179 166 179
39 38 33 33 27 22 23 26 24 31 24 25 29 28 26 24 26 17 13 16 22 23 34 53 48 76 84 47 59 34 33 41 29 27 48 52 47 41 34 21 21 17 20 45 92 158 160 165 182 185 178 192 198 189 184 189 180 182 165 186 206 180 190 179 176 131 176 169 155 191 342 325 302 310 252 216 189 188 184 172 172 178 187 196 188
47 42 34 31 25 24 29 31 30 30 27 28 24 28 27 25 22 18 13 14 13 17 35 37 31 34 53 40 60 70 51 62 70 50 58 58 46 48 49 43 35 19 12 16 12 327 231 168 206 196 194 187 181 189 189 194 193 187 182 185 199 235 185 190 183 193 163 132 105 99 219 188 296 307 262 223 203 200 189 190 187 185 195 193 185
53 41 31 23 24 25 29 33 30 32 33 30 27 27 26 24 21 16 14 14 17 17 25 32 45 50 53 46 31 58 43 14 34 25 26 32 25 22 29 34 33 23 12 10 360 352 323 256 300 207 220 206 199 194 194 204 198 196 195 204 176 187 199 208 210 195 143 140 185 201 192 140 244 238 211 238 200 201 190 203 189 195 192 195 183
62 49 37 28 26 29 30 29 27 38 35 34 29 29 30 27 21 17 14 14 19 23 27 31 39 41 34 36 39 30 26 25 22 14 15 21 17 8 349 14 21 11 358 353 352 330 344 343 137 232 249 239 226 219 208 210 205 202 198 197 192 192 211 211 221 223 208 200 154 107 54 262 219 226 142 259 199 216 222 204 205 192 192 191 190
66 58 51 38 35 34 33 29 33 33 33 26 28 29 29 29 27 22 18 15 16 21 26 40 50 54 48 45 36 31 31 23 17 1 4 12 342 314 359 10 17 9 3 353 344 341 327 329 354 167 222 225 223 228 227 233 229 222 213 205 208 218 204 193 213 235 235 242 237 223 153 177 179 207 125 241 283 237 227 221 207 202 193 192 203
65 63 46 46 37 37 33 31 25 30 25 17 27 31 32 35 34 32 27 20 13 20 24 35 50 53 60 63 60 52 42 16 8 17 10 347 355 33 356 354 22 11 341 1 352 341 334 327 324 309 233 229 225 229 236 227 226 222 220 217 217 219 194 202 209 215 238 265 260 261 348 138 147 132 205 91 225 282 245 222 227 216 205 200 204
75 71 60 49 43 37 35 25 25 25 18 23 30 30 34 33 37 35 34 30 24 17 30 33 52 50 49 48 47 41 40 24 15 10 16 15 15 0 352 344 339 10 347 339 348 344 341 326 324 320 311 268 243 229 232 234 236 241 228 230 232 226 215 215 212 211 204 226 231 250 265 321 218 42 151 173 164 169 232 254 275 224 215 220 209
60 66 65 58 47 36 28 28 18 26 26 30 28 29 33 34 38 40 40 33 23 21 28 38 48 52 54 48 46 34 30 26 15 23 22 13 21 11 14 360 344 334 340 333 328 339 333 320 321 324 316 303 270 270 263 255 242 237 235 231 226 230 220 226 219 219 217 228 218 250 259 251 257 243 269 158 161 182 239 194 215 223 247 241 225
54 57 60 60 57 48 26 22 29 25 23 28 31 32 32 32 36 39 38 33 24 22 29 39 44 46 48 44 47 36 29 27 30 24 20 15 19 12 9 10 7 5 345 335 335 325 324 319 320 313 305 304 308 275 276 276 267 255 243 235 232 233 228 221 224 224 222 232 221 225 228 234 271 274 271 236 311 214 198 195 198 185 202 230 208
64 63 58 55 53 49 31 31 22 22 22 29 32 34 31 33 33 40 33 31 24 25 30 38 42 44 45 41 41 38 31 34 32 27 20 21 19 12 10 4 12 10 9 3 358 345 327 315 301 294 310 308 309 306 285 269 269 262 257 250 245 236 233 233 234 230 225 229 234 225 228 213 215 211 211 209 208 208 151 216 194 204 204 219 222
65 60 51 50 46 42 36 33 24 19 24 29 29 29 34 34 37 46 35 26 24 26 37 40 43 44 43 38 37 33 33 34 36 31 20 22 18 13 6 12 8 4 10 5 1 354 352 329 314 318 312 312 304 297 296 287 283 281 275 261 254 247 248 244 242 238 230 233 234 228 235 233 240 238 227 207 209 223 204 209 190 190 281 245 270
65 57 52 44 54 54 47 29 21 16 20 28 27 25 27 33 35 48 37 23 25 26 40 41 44 43 41 36 32 28 31 34 34 33 22 24 16 14 14 11 1 9 2 360 354 352 348 352 336 319 317 312 306 311 299 299 295 290 283 277 268 258 245 237 238 237 230 228 230 230 230 231 235 234 224 219 240 251 224 221 223 186 209 236 233
82 78 73 63 62 53 47 33 11 4 23 33 34 32 25 35 32 47 39 27 26 35 37 44 44 43 41 39 34 29 29 30 30 31 23 25 20 20 18 10 5 2 354 354 344 345 353 347 346 336 327 319 314 307 303 300 303 297 291 288 279 270 267 256 248 248 245 241 235 240 237 234 239 233 232 220 221 216 229 213 180 225 120 237 299
114 109 110 93 68 65 63 46 14 29 43 45 44 37 37 42 41 45 45 29 33 35 37 41 39 37 35 36 35 31 29 30 29 27 25 22 18 21 15 10 13 356 355 341 346 352 351 351 351 346 338 331 324 318 310 310 307 309 302 290 292 282 275 267 265 258 256 252 243 233 242 238 234 233 231 234 215 216 212 193 171 195 260 220 236
124 111 96 96 99 98 109 159 183 113 79 74 66 63 63 56 52 53 51 40 37 38 38 40 38 37 34 31 26 24 22 22 24 22 21 24 18 22 11 11 3 353 351 352 350 355 350 351 350 347 342 339 329 318 310 308 307 312 304 303 296 292 288 282 271 264 262 259 255 253 245 249 235 230 231 237 228 223 218 200 195 205 216 251 236
124 126 132 123 124 151 162 165 144 102 87 88 103 107 92 72 56 48 39 36 35 32 36 32 34 38 31 32 25 26 24 27 23 15 11 9 16 11 12 359 356 3 350 353 349 349 350 350 345 341 340 337 336 330 317 306 304 303 295 294 293 289 289 283 281 276 268 264 265 259 251 256 248 239 239 236 235 232 230 218 200 209 207 232 229
157 155 155 156 159 165 169 168 132 124 120 95 74 67 68 71 65 54 43 40 27 31 29 30 26 35 31 26 21 24 28 23 25 18 11 14 6 7 2 4 359 347 352 342 347 346 345 349 347 342 339 338 338 331 331 319 312 305 292 286 276 284 289 288 278 270 273 268 267 270 263 262 256 250 244 238 235 231 230 223 218 221 206 225 230
164 173 182 186 174 168 160 148 135 116 122 103 68 52 43 44 52 65 53 42 29 24 21 14 28 10 23 10 29 14 20 30 17 22 20 18 6 360 358 347 347 349 348 350 347 345 345 340 345 338 337 337 334 334 333 330 323 309 300 294 292 290 286 283 280 278 273 270 270 270 269 265 259 256 256 246 243 241 236 231 232 224 225 226 233
192 189 195 188 183 174 160 138 113 102 93 92 80 60 54 55 60 52 42 30 27 20 14 9 341 9 336 352 345 350 5 13 16 40 25 19 358 355 346 351 341 333 340 342 343 341 340 340 338 339 335 334 333 327 332 329 329 317 306 303 290 291 288 281 282 278 274 272 272 271 268 266 265 257 257 252 249 242 236 238 231 227 232 232 232
199 191 184 160 148 128 106 108 103 81 79 82 94 91 92 63 58 78 82 26 30 2 12 354 350 349 7 352 341 356 355 347 356 5 18 358 349 348 341 322 335 341 335 335 334 333 330 329 328 331 332 331 332 328 328 327 324 319 313 300 298 294 285 280 276 280 276 270 269 269 269 266 262 261 260 258 253 247 245 242 236 229 233 228 224
196 190 164 148 123 106 75 68 70 67 50 71 112 90 49 80 205 95 91 136 60 354 10 349 354 349 360 345 347 0 6 1 353 343 344 345 344 339 323 343 343 318 336 323 324 324 324 324 326 323 326 325 324 325 323 327 322 318 312 308 302 297 291 286 281 278 275 270 265 268 270 268 262 258 260 259 254 253 244 247 246 232 232 231 216
187 172 160 159 159 153 146 132 131 156 204 215 198 147 199 293 339 350 71 314 177 253 38 19 10 1 348 343 351 357 5 354 359 338 334 327 328 327 323 338 323 322 323 319 314 318 315 317 314 312 316 319 318 316 316 318 315 312 307 304 298 292 286 286 284 276 276 275 274 268 268 267 267 266 262 256 255 253 250 247 250 240 239 235 218
161 151 149 155 165 164 147 166 177 193 208 213 202 201 199 40 2 18 10 317 335 18 38 42 24 6 346 353 340 325 2 339 355 329 324 311 316 323 318 329 318 326 324 315 316 311 315 313 313 309 311 310 310 308 309 307 304 302 301 299 297 292 285 277 274 276 276 273 270 275 270 262 260 264 265 262 255 250 250 251 253 249 246 245 222
154 156 177 181 185 180 188 187 183 193 184 149 150 169 159 154 142 128 225 259 284 299 62 29 55 14 1 2 346 341 342 336 328 315 307 300 304 307 307 304 313 316 315 318 319 322 316 314 308 306 306 306 302 299 298 298 296 294 291 290 289 288 284 280 274 271 270 269 270 267 271 268 259 262 266 264 261 255 252 251 252 251 249 249 239
165 173 173 183 189 188 177 178 184 185 175 171 172 170 178 186 205 205 200 275 279 248 40 43 26 17 357 353 341 346 341 338 333 328 323 309 304 307 302 298 298 303 303 300 301 306 305 304 305 301 298 293 291 288 285 285 285 286 286 284 284 282 281 279 279 275 270 265 265 266 265 264 261 258 261 259 257 258 256 253 252 252 249 250 247
177 181 193 194 201 200 198 198 189 193 192 186 179 190 191 193 213 224 220 206 222 194 303 38 17 11 352 339 339 333 329 328 328 324 323 325 321 317 315 309 307 301 304 308 307 306 305 301 300 300 296 295 294 289 286 284 282 277 273 277 280 280 275 273 272 272 270 267 262 263 263 260 260 257 258 256 252 251 248 253 252 252 248 246 247
185 197 198 197 206 213 206 210 201 203 204 200 193 191 186 195 215 231 219 212 205 170 147 55 35 350 330 312 305 304 311 311 313 317 317 316 315 316 317 312 314 312 307 306 307 305 301 302 299 298 296 296 295 293 289 285 280 278 277 276 275 273 272 269 267 263 263 263 262 260 260 258 255 256 254 255 250 252 249 250 249 249 248 244 245
197 211 212 207 211 213 216 216 213 209 203 211 218 224 225 231 227 236 239 274 248 100 350 9 350 334 305 294 292 294 292 300 304 307 309 307 307 305 308 311 311 308 306 304 304 303 305 304 298 295 298 296 292 287 287 285 287 285 281 280 280 278 278 275 268 265 263 262 261 258 258 256 253 254 252 251 248 244 247 252 248 238 243 246 246
211 220 222 218 216 217 219 218 226 215 216 219 220 223 224 222 247 255 295 277 45 336 21 351 347 329 323 320 314 309 310 311 312 311 308 307 306 307 306 305 304 301 300 301 301 301 301 301 303 302 297 294 290 288 279 282 283 282 282 279 278 276 272 270 274 276 272 263 259 261 258 255 255 255 255 254 254 251 247 245 249 239 236 240 243
221 224 228 226 224 222 222 223 226 220 215 210 208 213 217 219 229 235 243 262 114 4 18 6 339 326 329 325 322 317 317 315 310 308 305 306 306 308 309 306 303 302 301 301 299 299 299 297 297 297 297 295 290 287 288 289 289 287 285 284 280 278 276 273 268 266 269 271 269 260 258 259 259 259 257 255 253 252 251 249 248 244 237 234 237
220 224 225 225 224 220 217 218 219 218 213 207 211 216 207 220 218 215 232 155 96 77 39 345 320 322 324 321 313 311 310 305 309 303 303 304 307 307 305 302 301 303 302 301 299 296 294 294 293 292 289 289 289 287 288 291 291 291 290 287 286 284 280 275 273 271 269 266 264 264 260 258 254 252 253 253 252 250 250 249 247 245 243 240 236
222 225 224 221 216 214 213 215 216 215 209 214 204 199 206 209 200 231 122 90 78 66 11 329 315 324 312 308 305 302 300 300 302 305 307 311 309 304 301 302 300 298 300 298 295 295 293 292 289 289 288 287 286 286 288 290 291 291 291 291 287 284 282 279 275 272 272 272 270 265 262 256 255 251 249 248 248 248 247 246 246 246 244 242 242
224 218 214 218 218 221 220 214 212 215 215 210 171 167 202 194 173 101 93 75 59 2 359 323 323 319 309 301 299 298 295 298 306 310 312 309 308 301 299 299 301 300 297 296 294 291 291 288 286 286 286 286 284 285 288 290 291 292 292 292 289 287 285 281 278 275 273 272 270 269 267 262 256 251 245 245 245 245 245 244 244 242 241 241 241
235 240 236 228 226 240 251 259 262 219 153 134 156 142 107 75 85 81 74 58 26 6 339 327 316 312 312 306 305 306 307 311 314 312 308 301 297 297 297 299 300 295 297 295 294 295 291 288 288 287 287 285 283 287 291 294 296 296 295 295 289 286 283 281 280 278 274 272 270 269 267 266 264 256 246 237 241 242 243 242 241 241 238 237 235
232 222 245 234 224 215 221 221 175 125 108 92 88 89 93 94 76 78 51 39 14 342 317 318 309 309 311 316 327 322 318 315 310 307 302 298 297 296 297 302 298 293 292 290 289 288 288 290 290 290 290 288 288 290 294 298 298 298 298 296 290 285 282 280 278 278 276 273 271 267 266 265 264 263 254 242 238 236 239 240 241 241 240 238 237
245 220 229 225 222 203 167 129 108 91 90 89 89 81 89 76 54 36 32 4 350 316 303 300 298 308 321 333 332 321 313 310 307 305 302 300 302 302 301 306 298 293 292 290 289 288 288 290 291 292 291 289 289 293 298 299 300 300 301 298 294 287 279 277 273 271 272 273 273 273 272 271 266 265 261 255 250 242 242 240 241 241 240 239 241
237 245 232 135 136 121 127 120 110 91 97 100 91 95 84 58 31 14 4 334 321 293 293 295 299 321 324 326 320 314 308 307 307 302 301 301 302 298 296 300 293 295 292 290 291 290 286 285 288 292 293 294 293 297 300 302 301 299 297 295 293 289 284 281 279 276 275 274 273 274 272 270 268 266 264 261 256 249 246 244 243 241 243 241 241
234 230 210 161 161 142 130 113 110 106 113 102 88 73 59 38 19 357 336 302 291 283 296 305 310 318 319 319 314 310 305 304 301 298 299 298 299 296 294 294 287 286 286 289 288 286 285 281 280 285 291 291 292 295 297 298 297 296 295 289 287 283 282 280 282 281 276 270 269 270 271 271 272 272 269 265 259 253 246 243 242 241 241 240 238
258 274 179 157 147 119 104 107 111 118 108 80 71 68 64 44 357 321 296 279 274 291 318 321 315 316 316 312 308 303 297 297 295 294 292 289 292 293 292 292 288 284 285 286 284 282 282 282 282 278 277 278 282 285 291 297 297 296 296 294 285 282 282 286 287 288 290 283 276 275 276 276 274 273 272 271 269 262 253 244 241 240 238 241 235
263 162 144 124 114 115 119 117 112 108 93 82 71 66 43 32 331 309 278 283 310 330 322 316 314 308 304 300 295 290 294 289 282 287 289 289 288 288 291 290 289 289 283 282 281 278 276 277 276 271 271 274 274 284 290 296 297 298 297 295 288 282 283 280 276 274 267 269 268 267 269 269 270 271 272 272 269 266 262 254 242 239 235 238 232
124 141 136 122 110 107 102 91 80 83 83 69 69 56 33 3 323 292 288 321 337 324 321 313 306 303 295 291 289 289 283 284 285 283 286 286 283 282 283 287 287 287 287 285 285 283 281 281 279 273 272 275 280 288 293 296 297 296 295 294 292 287 285 283 279 275 279 284 284 285 283 275 274 272 271 271 269 266 261 258 248 241 236 231 232
148 115 103 125 115 104 93 93 74 76 73 74 70 55 24 337 303 293 325 333 329 324 313 307 303 299 296 294 294 290 289 285 283 282 282 287 288 287 285 284 285 287 286 286 286 284 284 286 285 281 279 277 277 279 289 292 293 295 294 291 289 289 289 289 290 290 290 287 287 284 281 281 280 278 274 271 268 266 266 260 255 249 245 235 232
86 99 96 94 99 101 96 84 83 77 78 67 73 42 345 317 294 314 330 325 319 310 306 303 300 298 299 298 296 292 285 282 282 284 281 284 290 290 288 287 287 289 291 291 289 289 290 289 291 289 278 276 276 277 282 287 290 290 290 290 289 288 288 283 279 276 280 281 282 282 283 283 284 284 282 277 271 265 259 260 258 253 247 240 234
137 113 101 94 115 125 122 107 97 83 81 80 65 36 324 300 298 339 321 318 312 308 306 302 300 300 300 300 298 292 289 283 278 280 289 292 291 291 294 294 293 292 290 289 290 291 290 291 292 290 289 279 271 267 269 275 282 286 289 290 289 287 286 285 283 277 270 272 274 277 279 281 281 281 284 289 281 268 262 257 255 253 249 242 237
110 110 105 116 115 107 109 115 45 84 83 72 54 21 305 285 308 320 309 307 308 309 306 303 303 302 302 304 303 298 286 282 284 281 279 284 289 297 296 297 295 290 289 288 290 290 287 287 286 284 282 281 276 271 270 270 267 271 272 275 278 281 281 281 279 278 279 279 280 283 285 285 286 287 287 284 287 282 262 255 253 252 246 242 236
128 143 135 108 100 84 65 93 93 156 90 35 354 282 264 286 297 300 306 304 304 302 300 302 304 304 303 303 299 301 302 297 292 290 284 284 289 288 291 293 292 290 288 286 286 288 288 284 281 281 281 279 278 274 271 270 267 266 261 260 265 264 266 271 276 275 274 276 274 273 272 274 276 281 284 286 285 286 276 250 243 243 244 242 241
140 141 124 118 105 121 229 271 271 205 21 302 295 281 278 283 288 293 297 302 299 296 299 302 303 303 301 301 297 295 298 301 299 297 298 294 282 283 289 288 289 286 287 286 285 286 284 283 283 282 282 282 278 271 269 279 280 270 267 265 256 255 255 247 256 263 263 264 264 267 272 272 274 274 275 278 287 290 277 250 232 229 231 235 239
144 143 124 122 147 230 225 218 262 254 287 302 287 284 285 291 294 298 298 302 296 293 293 296 297 301 300 297 294 297 298 299 299 294 277 276 291 294 285 277 261 257 268 277 280 281 280 283 284 291 296 293 287 282 274 290 292 297 298 295 289 280 264 254 245 250 255 258 260 268 265 272 274 281 288 287 287 284 283 271 253 241 232 226 228
147 128 117 124 135 167 194 257 276 275 285 293 291 287 290 292 295 291 293 294 296 299 300 299 301 302 300 300 299 298 297 297 295 297 298 284 270 292 291 289 289 288 290 292 293 292 292 293 292 284 282 292 296 295 300 303 304 299 295 294 293 293 291 289 289 288 288 286 281 276 277 278 278 279 276 280 286 289 289 281 266 254 250 246 238
152 100 3 153 178 157 273 289 279 289 297 291 290 288 291 290 284 284 285 285 292 300 301 302 309 305 305 304 304 301 299 297 295 297 295 298 301 286 286 290 291 294 296 297 297 297 298 300 300 300 299 299 299 301 303 302 298 297 299 301 301 300 298 296 295 293 286 275 274 269 271 271 271 269 272 275 275 279 282 280 273 263 258 251 244